Kleine Brogel, Belgium

9:44 PM CET on November 21, 2018 (GMT +0100)
Kleine-Brogel Air Base

Weather History for EBBL - July, 2018

Change the Weather History Date:

Thursday, July 12, 2018

  Actual Average Record
Temperature  
Mean Temperature 69 °F -  
Max Temperature 82 °F 70 °F 82 °F (1999)
Min Temperature 56 °F 55 °F 47 °F (2013)
Cooling Degree Days 4    
Growing Degree Days 19 (Base 50)    
Moisture  
Dew Point 56 °F    
Average Humidity 64    
Maximum Humidity 100    
Minimum Humidity 27    
Precipitation  
Precipitation 0.00 in - - ()
Sea Level Pressure  
Sea Level Pressure 30.09 in    
Wind  
Wind Speed 5 mph ()    
Max Wind Speed 9 mph    
Max Gust Speed -    
Visibility 6.5 miles    
Events      
Averages and records for this station are not official NWS values.
T = Trace of Precipitation, MM = Missing Value Source: Averaged Metar Reports

Daily Weather History Graph

Daily Weather History Graph

Search for Another Location

Airport or City:

Astronomy

Jul. 12, 2018 Rise Set
Actual Time 5:36 AM CEST 9:50 PM CEST
Civil Twilight 4:51 AM CEST 10:34 PM CEST
Nautical Twilight 3:46 AM CEST 11:39 PM CEST
Astronomical Twilight 2:16 AM CEST 1:11 AM CEST
Moon 4:51 AM CEST (7/12) 9:14 PM CEST (7/12)
Length of Visible Light 17h 42m
Length of Day
16h 13m
Waning Crescent, 1% of the Moon is Illuminated
Jul 12
Waning Crescent
Jul 13
New
Jul 19
First Quarter
Jul 27
Full
Aug 4
Last Quarter

Hourly Weather History & Observations

Time (CEST) Temp. Heat Index Dew Point Humidity Pressure Visibility Wind Dir Wind Speed Gust Speed Precip Events Conditions
12:00 AM 65 °F - 56 °F 64% 30.09 in 12 mi NNW 6.7 mph - -   Mostly Cloudy
12:25 AM 64.4 °F - 55.4 °F 73% 30.06 in 6.2 mi NW 5.8 mph - N/A   Overcast
12:55 AM 64.4 °F - 57.2 °F 77% 30.06 in 6.2 mi NW 5.8 mph - N/A   Mostly Cloudy
1:00 AM 64 °F - 57 °F 70% 30.09 in 11 mi NW 4.5 mph - -   Mostly Cloudy
1:25 AM 62.6 °F - 57.2 °F 82% 30.06 in 6.2 mi NW 5.8 mph - N/A   Mostly Cloudy
1:55 AM 62.6 °F - 57.2 °F 82% 30.06 in 6.2 mi WNW 4.6 mph - N/A   Mostly Cloudy
2:00 AM 62 °F - 57 °F 80% 30.09 in 9 mi WNW 4.5 mph - -   Mostly Cloudy
2:25 AM 62.6 °F - 57.2 °F 82% 30.06 in 6.2 mi WNW 4.6 mph - N/A   Overcast
2:55 AM 62.6 °F - 57.2 °F 82% 30.06 in 6.2 mi West 4.6 mph - N/A   Mostly Cloudy
3:00 AM 62 °F - 58 °F 81% 30.09 in 8 mi West 4.5 mph - -   Mostly Cloudy
3:25 AM 60.8 °F - 57.2 °F 88% 30.06 in 6.2 mi NW 4.6 mph - N/A   Overcast
3:47 AM 60.8 °F - 57.2 °F 88% 30.06 in 5.0 mi NW 4.6 mph - N/A   Mostly Cloudy
3:55 AM 60.8 °F - 57.2 °F 88% 30.06 in 4.3 mi NW 3.5 mph - N/A   Mostly Cloudy
4:00 AM 60 °F - 58 °F 89% 30.09 in 4 mi 2.2 mph - -   Partly Cloudy
4:22 AM 60.8 °F - 57.2 °F 88% 30.06 in 3.7 mi NW 3.5 mph - N/A   Mostly Cloudy
4:25 AM 60.8 °F - 57.2 °F 88% 30.06 in 3.7 mi NNW 3.5 mph - N/A   Mostly Cloudy
4:55 AM 59.0 °F - 57.2 °F 94% 30.06 in - Variable 2.3 mph - N/A   Scattered Clouds
5:00 AM 59 °F - 57 °F 90% 30.08 in 3 mi 2.2 mph - -   Mist
5:25 AM 57.2 °F - 57.2 °F 100% 30.06 in 2.2 mi Variable 2.3 mph - N/A   Mostly Cloudy
6:00 AM 57 °F - 56 °F 97% 30.09 in 2 mi 2.2 mph - -   Mostly Cloudy
6:23 AM 59.0 °F - 57.2 °F 94% 30.06 in 1.6 mi Variable 2.3 mph - N/A   Mostly Cloudy
6:25 AM 59.0 °F - 59.0 °F 100% 30.09 in 1.6 mi West 3.5 mph - N/A   Mostly Cloudy
6:55 AM 60.8 °F - 59.0 °F 94% 30.09 in 1.6 mi NW 3.5 mph - N/A   Mostly Cloudy
7:00 AM 60 °F - 59 °F 94% 30.09 in 2 mi 4.5 mph - -   Mist
7:23 AM 60.8 °F - 59.0 °F 94% 30.09 in - NNW 4.6 mph - N/A   Mostly Cloudy
7:25 AM 60.8 °F - 59.0 °F 94% 30.09 in - North 4.6 mph - N/A   Mostly Cloudy
7:55 AM 60.8 °F - 57.2 °F 88% 30.09 in 2.8 mi North 5.8 mph - N/A   Mostly Cloudy
8:00 AM 60 °F - 57 °F 88% 30.10 in 3 mi North 6.7 mph - -   Mostly Cloudy
8:25 AM 60.8 °F - 57.2 °F 88% 30.09 in 3.7 mi NNW 4.6 mph - N/A   Mostly Cloudy
8:33 AM 60.8 °F - 57.2 °F 88% 30.09 in 3.7 mi NNW 3.5 mph - N/A   Mostly Cloudy
8:47 AM 62.6 °F - 57.2 °F 82% 30.12 in 3.7 mi NW 4.6 mph - N/A   Mostly Cloudy
8:55 AM 62.6 °F - 57.2 °F 82% 30.12 in 3.7 mi NW 3.5 mph - N/A   Mostly Cloudy
9:00 AM 63 °F - 57 °F 75% 30.12 in 4 mi 2.2 mph - -   Mostly Cloudy
9:25 AM 64.4 °F - 57.2 °F 77% 30.12 in 5.0 mi NNW 4.6 mph - N/A   Mostly Cloudy
9:55 AM 66.2 °F - 57.2 °F 73% 30.12 in 6.2 mi WNW 3.5 mph - N/A   Scattered Clouds
10:00 AM 65 °F - 56 °F 66% 30.13 in 7 mi 2.2 mph - -   Mostly Cloudy
10:11 AM 64.4 °F - 55.4 °F 73% 30.12 in 6.2 mi Variable 2.3 mph - N/A   Scattered Clouds
10:24 AM 68.0 °F - 57.2 °F 68% 30.12 in 6.2 mi NW 3.5 mph - N/A   Partly Cloudy
10:25 AM 68.0 °F - 57.2 °F 68% 30.12 in 6.2 mi NW 3.5 mph - N/A   Partly Cloudy
10:55 AM 71.6 °F - 57.2 °F 60% 30.12 in 6.2 mi NW 4.6 mph - N/A   Partly Cloudy
11:00 AM 71 °F - 56 °F 50% 30.12 in 7 mi NW 4.5 mph - -   Scattered Clouds
11:25 AM 71.6 °F - 55.4 °F 57% 30.12 in 6.2 mi NNW 5.8 mph - N/A   Partly Cloudy
11:55 AM 73.4 °F - 55.4 °F 53% 30.09 in 6.2 mi NNW 4.6 mph - N/A   Partly Cloudy
12:00 PM 74 °F - 55 °F 41% 30.12 in 12 mi NNW 4.5 mph - -   Scattered Clouds
12:25 PM 77.0 °F - 55.4 °F 47% 30.09 in 6.2 mi NNW 8.1 mph - N/A   Partly Cloudy
12:55 PM 77.0 °F - 55.4 °F 47% 30.09 in 6.2 mi North 8.1 mph - N/A   Partly Cloudy
1:00 PM 78 °F - 55 °F 34% 30.11 in 12 mi North 6.7 mph - -   Scattered Clouds
1:25 PM 77.0 °F - 55.4 °F 47% 30.09 in 6.2 mi North 9.2 mph - N/A   Partly Cloudy
1:55 PM 78.8 °F - 55.4 °F 44% 30.09 in 6.2 mi NNW 8.1 mph - N/A   Partly Cloudy
2:00 PM 78 °F - 55 °F 34% 30.10 in 12 mi NNW 6.7 mph - -   Mostly Cloudy
2:25 PM 78.8 °F - 53.6 °F 42% 30.09 in 6.2 mi North 6.9 mph - N/A   Partly Cloudy
2:55 PM 78.8 °F - 53.6 °F 42% 30.09 in 6.2 mi North 8.1 mph - N/A   Partly Cloudy
3:00 PM 79 °F - 54 °F 31% 30.10 in 12 mi North 8.9 mph - -   Scattered Clouds
3:25 PM 78.8 °F - 53.6 °F 42% 30.09 in 6.2 mi NNW 6.9 mph - N/A   Partly Cloudy
3:55 PM 80.6 °F 80.3 °F 53.6 °F 39% 30.09 in 6.2 mi North 5.8 mph - N/A   Partly Cloudy
4:00 PM 81 °F - 53 °F 27% 30.09 in 12 mi North 4.5 mph - -   Scattered Clouds
4:25 PM 77.0 °F - 53.6 °F 44% 30.09 in 6.2 mi NNW 8.1 mph - N/A   Partly Cloudy
4:55 PM 78.8 °F - 51.8 °F 39% 30.06 in 6.2 mi NNE 5.8 mph - N/A   Partly Cloudy
5:00 PM 78 °F - 52 °F 29% 30.09 in 12 mi NNE 4.5 mph - -   Scattered Clouds
5:19 PM 80.6 °F - 51.8 °F 37% 30.09 in 6.2 mi NNE 8.1 mph - N/A   Partly Cloudy
5:25 PM 80.6 °F - 51.8 °F 37% 30.09 in 6.2 mi North 5.8 mph - N/A   Mostly Cloudy
5:55 PM 80.6 °F - 51.8 °F 37% 30.06 in 6.2 mi North 9.2 mph - N/A   Scattered Clouds
6:00 PM 80 °F - 52 °F 27% 30.08 in 12 mi North 8.9 mph - -   Partly Cloudy
6:25 PM 80.6 °F 80.3 °F 53.6 °F 39% 30.06 in 6.2 mi NNE 9.2 mph - N/A   Mostly Cloudy
6:55 PM 80.6 °F 80.3 °F 53.6 °F 39% 30.06 in 6.2 mi North 9.2 mph - N/A   Mostly Cloudy
7:00 PM 80 °F - 54 °F 30% 30.07 in 12 mi North 8.9 mph - -   Mostly Cloudy
7:25 PM 77.0 °F - 53.6 °F 44% 30.06 in 6.2 mi NNW 9.2 mph - N/A   Unknown
7:55 PM 77.0 °F - 55.4 °F 47% 30.09 in 6.2 mi NNW 8.1 mph - N/A   Partly Cloudy
8:00 PM 76 °F - 55 °F 37% 30.09 in 12 mi NNW 6.7 mph - -   Scattered Clouds
8:25 PM 75.2 °F - 57.2 °F 53% 30.09 in 6.2 mi NNW 9.2 mph - N/A   Unknown
8:55 PM 73.4 °F - 57.2 °F 57% 30.09 in 6.2 mi NNW 6.9 mph - N/A   Unknown
9:00 PM 74 °F - 56 °F 44% 30.10 in 12 mi NNW 6.7 mph - -  
9:25 PM 71.6 °F - 55.4 °F 57% 30.09 in 6.2 mi NNW 6.9 mph - N/A   Unknown
9:55 PM 69.8 °F - 55.4 °F 60% 30.12 in 6.2 mi NNW 8.1 mph - N/A   Unknown
10:00 PM 70 °F - 55 °F 49% 30.12 in 12 mi NNW 6.7 mph - -  
10:25 PM 68.0 °F - 55.4 °F 64% 30.12 in 6.2 mi NNW 5.8 mph - N/A   Unknown
10:55 PM 66.2 °F - 55.4 °F 68% 30.12 in 6.2 mi NNW 4.6 mph - N/A   Unknown
11:00 PM 67 °F - 56 °F 58% 30.14 in 12 mi NNW 4.5 mph - -  
11:25 PM 66.2 °F - 55.4 °F 68% 30.12 in 6.2 mi NW 5.8 mph - N/A   Unknown
11:55 PM 64.4 °F - 55.4 °F 73% 30.15 in 6.2 mi NNW 5.8 mph - N/A   Unknown